Falfurrias, TX

3:44 PM CDT on August 19, 2017 (GMT -0500)
Falfurrias

Weather History for KBKS - October, 2013

Change the Weather History Date:

Monday, October 7, 2013

  Actual Average (KNQI) Record (KNQI)
Temperature  
Mean Temperature 71 °F -  
Max Temperature 86 °F 82 °F 95 °F (2011)
Min Temperature 56 °F 65 °F 41 °F (2013)
Cooling Degree Days 6    
Growing Degree Days 21 (Base 50)    
Moisture  
Dew Point 50 °F    
Average Humidity 54    
Maximum Humidity 88    
Minimum Humidity 20    
Precipitation  
Precipitation 0.00 in - - ()
Sea Level Pressure  
Sea Level Pressure 30.10 in    
Wind  
Wind Speed 5 mph (NNW)    
Max Wind Speed 12 mph    
Max Gust Speed -    
Visibility 10 miles    
Events      
Averages and records for this station are not official NWS values.
T = Trace of Precipitation, MM = Missing Value Source: NWS Daily Summary

Daily Weather History Graph

Daily Weather History Graph

Search for Another Location

Airport or City:

Trip Planner

Search our weather history database for the weather conditions in past years. The results will help you decide how hot, cold, wet, or windy it might be!

Date:

Astronomy

Oct. 07, 2013 Rise Set
Actual Time 7:28 AM CDT 7:11 PM CDT
Civil Twilight 7:04 AM CDT 7:35 PM CDT
Nautical Twilight 6:37 AM CDT 8:02 PM CDT
Astronomical Twilight 6:10 AM CDT 8:29 PM CDT
Moon 10:03 AM CDT (10/7) 9:15 PM CDT (10/7)
Length of Visible Light 12h 30m
Length of Day
11h 43m
Waxing Crescent, 9% of the Moon is Illuminated
Oct 7
Waxing Crescent
Oct 11
First Quarter
Oct 18
Full
Oct 26
Last Quarter
Nov 3
New

Hourly Weather History & Observations

Time (CDT) Temp. Dew Point Humidity Pressure Visibility Wind Dir Wind Speed Gust Speed Precip Events Conditions
12:15 AM 63.5 °F 55.6 °F 75% 30.12 in 10.0 mi WNW 3.5 mph - N/A   Clear
12:35 AM 62.1 °F 55.0 °F 78% 30.12 in 10.0 mi West 4.6 mph - N/A   Clear
12:55 AM 61.0 °F 54.9 °F 80% 30.12 in 10.0 mi West 5.8 mph - N/A   Clear
1:15 AM 60.3 °F 55.0 °F 83% 30.12 in 10.0 mi West 6.9 mph - N/A   Clear
1:35 AM 59.4 °F 54.3 °F 83% 30.12 in 10.0 mi West 6.9 mph - N/A   Clear
1:55 AM 59.2 °F 54.5 °F 84% 30.11 in 10.0 mi WNW 4.6 mph - N/A   Clear
2:15 AM 60.8 °F 55.4 °F 82% 30.11 in 10.0 mi WNW 5.8 mph - N/A   Clear
2:35 AM 60.1 °F 55.0 °F 83% 30.11 in 10.0 mi West 4.6 mph - N/A   Clear
2:55 AM 59.7 °F 54.9 °F 84% 30.11 in 10.0 mi WNW 4.6 mph - N/A   Clear
3:15 AM 59.0 °F 54.7 °F 86% 30.11 in 10.0 mi West 4.6 mph - N/A   Clear
3:35 AM 59.0 °F 54.5 °F 85% 30.11 in 10.0 mi WNW 4.6 mph - N/A   Clear
3:55 AM 58.3 °F 54.1 °F 86% 30.11 in 10.0 mi WNW 3.5 mph - N/A   Clear
4:15 AM 57.6 °F 53.8 °F 87% 30.11 in 10.0 mi WNW 3.5 mph - N/A   Clear
4:35 AM 57.4 °F 53.6 °F 87% 30.11 in 10.0 mi WNW 3.5 mph - N/A   Clear
4:55 AM 56.8 °F 53.1 °F 87% 30.11 in 10.0 mi West 3.5 mph - N/A   Clear
5:15 AM 56.3 °F 52.9 °F 88% 30.11 in 10.0 mi WNW 3.5 mph - N/A   Clear
5:35 AM 56.3 °F 52.7 °F 88% 30.11 in 10.0 mi WNW 5.8 mph - N/A   Clear
5:55 AM 56.7 °F 52.7 °F 87% 30.11 in 10.0 mi NW 3.5 mph - N/A   Clear
6:15 AM 57.4 °F 52.7 °F 84% 30.11 in 10.0 mi WNW 5.8 mph - N/A   Clear
6:35 AM 57.2 °F 52.2 °F 83% 30.11 in 10.0 mi NW 3.5 mph - N/A   Clear
6:55 AM 57.0 °F 52.0 °F 83% 30.11 in 10.0 mi WNW 4.6 mph - N/A   Clear
7:15 AM 56.7 °F 51.8 °F 84% 30.12 in 10.0 mi WNW 3.5 mph - N/A   Clear
7:35 AM 56.3 °F 51.3 °F 83% 30.12 in 10.0 mi Calm Calm - N/A   Clear
7:55 AM 56.3 °F 50.9 °F 82% 30.12 in 10.0 mi WNW 3.5 mph - N/A   Clear
8:15 AM 57.9 °F 51.1 °F 78% 30.13 in 10.0 mi WNW 3.5 mph - N/A   Clear
8:35 AM 59.5 °F 51.6 °F 75% 30.13 in 10.0 mi NW 4.6 mph - N/A   Clear
8:55 AM 61.7 °F 51.4 °F 69% 30.14 in 10.0 mi NW 5.8 mph - N/A   Clear
9:15 AM 64.6 °F 52.0 °F 64% 30.14 in 10.0 mi NW 6.9 mph - N/A   Clear
9:35 AM 67.3 °F 53.2 °F 61% 30.15 in 10.0 mi NW 6.9 mph - N/A   Clear
9:55 AM 70.3 °F 51.6 °F 51% 30.16 in 10.0 mi NW 8.1 mph - N/A   Clear
10:15 AM 72.9 °F 51.3 °F 47% 30.16 in 10.0 mi NW 5.8 mph - N/A   Clear
10:35 AM 75.0 °F 51.3 °F 43% 30.16 in 10.0 mi NNW 5.8 mph - N/A   Clear
10:55 AM 77.4 °F 51.8 °F 41% 30.16 in 10.0 mi North 6.9 mph - N/A   Clear
11:15 AM 78.6 °F 51.4 °F 39% 30.16 in 10.0 mi North 5.8 mph - N/A   Clear
11:35 AM 79.3 °F 48.9 °F 34% 30.16 in 10.0 mi North 6.9 mph - N/A   Clear
11:55 AM 80.4 °F 48.2 °F 32% 30.16 in 10.0 mi North 8.1 mph - N/A   Clear
12:15 PM 81.3 °F 46.9 °F 30% 30.16 in 10.0 mi North 3.5 mph - N/A   Clear
12:35 PM 81.7 °F 43.3 °F 26% 30.15 in 10.0 mi NNE 6.9 mph - N/A   Clear
12:55 PM 82.9 °F 45.3 °F 27% 30.14 in 10.0 mi North 8.1 mph - N/A   Clear
1:15 PM 83.1 °F 43.5 °F 25% 30.14 in 10.0 mi North 6.9 mph - N/A   Clear
1:35 PM 83.8 °F 45.1 °F 26% 30.13 in 10.0 mi NNW 8.1 mph - N/A   Clear
1:55 PM 84.4 °F 41.0 °F 22% 30.11 in 10.0 mi North 8.1 mph - N/A   Clear
2:15 PM 84.7 °F 41.4 °F 22% 30.10 in 10.0 mi North 8.1 mph - N/A   Clear
2:35 PM 85.1 °F 42.3 °F 22% 30.09 in 10.0 mi NNE 4.6 mph - N/A   Clear
2:55 PM 85.3 °F 40.6 °F 21% 30.09 in 10.0 mi NNW 6.9 mph - N/A   Clear
3:15 PM 86.0 °F 40.5 °F 20% 30.08 in 10.0 mi North 11.5 mph - N/A   Clear
3:35 PM 86.2 °F 40.3 °F 20% 30.07 in 10.0 mi North 8.1 mph - N/A   Clear
3:55 PM 85.8 °F 40.1 °F 20% 30.06 in 10.0 mi North 9.2 mph - N/A   Clear
4:15 PM 85.8 °F 41.0 °F 21% 30.06 in 10.0 mi North 10.4 mph - N/A   Clear
4:35 PM 86.2 °F 42.3 °F 21% 30.05 in 10.0 mi North 8.1 mph - N/A   Clear
4:55 PM 86.0 °F 41.7 °F 21% 30.05 in 10.0 mi North 5.8 mph - N/A   Clear
5:15 PM 86.0 °F 41.9 °F 21% 30.05 in 10.0 mi NNE 9.2 mph - N/A   Clear
5:35 PM 86.0 °F 43.0 °F 22% 30.05 in 10.0 mi NNW 8.1 mph - N/A   Clear
5:55 PM 85.8 °F 42.6 °F 22% 30.04 in 10.0 mi North 8.1 mph - N/A   Clear
6:15 PM 85.3 °F 42.8 °F 22% 30.04 in 10.0 mi NNW 4.6 mph - N/A   Clear
6:35 PM 84.6 °F 43.0 °F 23% 30.04 in 10.0 mi North 4.6 mph - N/A   Clear
6:55 PM 83.3 °F 46.4 °F 27% 30.04 in 10.0 mi Calm Calm - N/A   Clear
7:15 PM 82.4 °F 46.4 °F 28% 30.05 in 10.0 mi Calm Calm - N/A   Clear
7:35 PM 79.5 °F 47.7 °F 33% 30.05 in 10.0 mi Calm Calm - N/A   Clear
7:55 PM 77.2 °F 49.6 °F 38% 30.05 in 10.0 mi Calm Calm - N/A   Clear
8:15 PM 74.3 °F 50.7 °F 43% 30.06 in 10.0 mi ESE 6.9 mph - N/A   Clear
8:35 PM 73.6 °F 50.9 °F 45% 30.06 in 10.0 mi SE 5.8 mph - N/A   Clear
8:55 PM 72.7 °F 50.9 °F 46% 30.07 in 10.0 mi ESE 4.6 mph - N/A   Clear
9:15 PM 71.8 °F 51.3 °F 48% 30.07 in 10.0 mi ESE 4.6 mph - N/A   Clear
9:35 PM 70.9 °F 51.8 °F 51% 30.08 in 10.0 mi SE 3.5 mph - N/A   Clear
9:55 PM 70.0 °F 51.8 °F 52% 30.09 in 10.0 mi Calm Calm - N/A   Clear
10:15 PM 68.9 °F 53.1 °F 57% 30.09 in 10.0 mi Calm Calm - N/A   Clear
10:35 PM 65.8 °F 53.4 °F 64% 30.09 in 10.0 mi ESE 3.5 mph - N/A   Clear
10:55 PM 65.7 °F 52.3 °F 62% 30.09 in 10.0 mi ESE 3.5 mph - N/A   Clear
11:15 PM 65.1 °F 53.6 °F 66% 30.09 in 10.0 mi Calm Calm - N/A   Clear
11:35 PM 65.1 °F 53.6 °F 66% 30.09 in 10.0 mi Calm Calm - N/A   Clear
11:55 PM 63.9 °F 53.8 °F 70% 30.08 in 10.0 mi Calm Calm - N/A   Clear